Weather Roundup
Issued by NWS Chicago, IL

Home | Current Version | Previous Version | Graphics & Text | Print | Product List | Glossary On
Versions: 1 2 3 4 5 6 7 8 9 10 11 12 13 14 15 16 17 18 19 20 21 22 23 24 25 26 27 28 29 30 31 32 33 34 35 36 37 38 39 40 41 42 43 44 45 46 47 48 49 50
000
NZUS59 KLOT 300710
HRRLOT

CHICAGO AREA WEATHER ROUNDUP
NATIONAL WEATHER SERVICE CHICAGO/ROMEOVILLE IL
200 AM CDT THU OCT 30 2014

NOTE: "FAIR" INDICATES FEW OR NO CLOUDS BELOW 12,000 FEET WITH NO
SIGNIFICANT WEATHER AND/OR OBSTRUCTIONS TO VISIBILITY.

* THESE STATIONS ARE NOT UNDER NWS QUALITY CONTROL. THEY ALSO MAY NOT
  REPORT WEATHER SUCH AS PRECIPITATION OR FOG.

ILZ005-006-012>014-019>023-300800-
NORTHEAST ILLINOIS

CITY           SKY/WX    TMP DP  RH WIND       PRES   REMARKS
OHARE          PTCLDY    37  31  78 W3        30.13S
MIDWAY         CLEAR     42  34  73 CALM      30.13F
AURORA         CLEAR     30  26  85 CALM      30.14F
LANSING*       CLEAR     35  32  91 CALM      30.14F
JOLIET*        CLEAR     31  31  98 CALM      30.14F
WAUKEGAN       CLEAR     34  30  85 CALM      30.12F
DUPAGE AIRPORT CLEAR     33  29  85 CALM      30.13S
WHEELING       CLEAR     36  30  79 CALM      30.15S
KANKAKEE*      CLEAR     35  32  90 SW3       30.15S
MORRIS*        CLEAR     32  31  96 CALM      30.14S
LEWIS AIRPORT* CLEAR     33  31  94 CALM      30.14S
NORTHERLY IS     N/A     45  34  65 W5          N/A
$$

WIZ051-052-058>065-066-070>072-300800-
SOUTHEAST WISCONSIN

CITY           SKY/WX    TMP DP  RH WIND       PRES   REMARKS
MILWAUKEE      CLEAR     37  30  75 CALM      30.12F
KENOSHA*       CLEAR     33  31  92 CALM      30.12F
RACINE*        CLEAR     37  30  75 W5        30.14S
BURLINGTON     PTCLDY    27  26  96 CALM      30.12S
WAUKESHA       CLEAR     30  28  93 CALM      30.12F
WEST BEND      PTCLDY    32  30  93 CALM      30.10F
$$

INZ001>003-010>013-019-020-300800-
NORTHWEST INDIANA

CITY           SKY/WX    TMP DP  RH WIND       PRES   REMARKS
GARY*          CLEAR     37  34  86 CALM      30.15S
MICHIGAN CITY* NOT AVBL
RENSSELAER*    NOT AVBL
VALPARAISO     CLOUDY    43  34  70 W5        30.14R
$$

LMZ740>746-300800-
SOUTHERN LAKE MICHIGAN

STATION/POSITION TIME  SKY/WX   TEMP WIND        PRES    VSBY
                                AIR  DIR/SP/G
                 (UTC)          (F)  (DEG/KT/KT) (MB)    (MI)
HARRISON CRIB    0600            46  280/  6/  7   N/A
BURNHAM HARBOR   0700            44  250/  4/  5   N/A
CALUMET HARBOR   0700            40  230/  3/  4 1019.3R
BURNS HARBOR     NOT AVBL
MICHIGAN CITY    0700            46  160/  4/  6   N/A
$$

ABBREVIATIONS USED IN REMARKS
   TC - TEMPERATURE IN CELSIUS
  WCI - WIND CHILL INDEX
   HX - HEAT INDEX
  VSB - VISIBILITY
$$



USA.gov is the U.S. government's official web portal to all federal, state and local government web resources and services.